Location: Saratoga Springs
(43.0831°N, 73.7850°W)
Time: 08:33:57
(UTC-04:00)

Vanguard 2 Rocket - Pass Details

Date: 22 April 2024
Orbit: 556 x 3304 km, 32.9° (Epoch: 22 May)

Event Time Altitude Azimuth Distance (km) Brightness Sun altitude
Rises 03:31:04 0° 279° (W) 7,256 11.2 -23.9°
Reaches altitude 10° 03:36:32 10° 272° (W) 6,262 10.8 -23.2°
Maximum altitude 03:53:16 36° 216° (SW) 3,976 9.6 -21.0°
Drops below altitude 10° 04:06:00 10° 156° (SSE) 4,767 10.4 -19.2°
Sets 04:09:32 0° 147° (SSE) 5,416 10.8 -18.7°
